LOT5PG EPGD-EPWA

Flight info

Callsign LOT5PG
Flight time 0h 33m
Altitude 27000
Route IRLUN N133 NASOK N195 SORIX
Aircraft B38M/M-SDE1FGHILORVWXY/HB1

Departure

Time 2026-05-06 07:49
Airport Gdańsk Lech Wałęsa Airport (EPGD)

Arrival

Time 2026-05-06 08:23
Airport Warsaw Chopin Airport (EPWA)
Time Latitude Longitude Altitude Speed Heading
2026-05-06 07:15 54.38129 18.46559 462 ft 0 kts 23°
2026-05-06 07:33 54.38128 18.46559 462 ft 0 kts 23°
2026-05-06 07:42 54.38126 18.46557 489 ft 3 kts 22°
2026-05-06 07:42 54.38101 18.46543 458 ft 4 kts
2026-05-06 07:42 54.38082 18.46552 459 ft 3 kts 297°
2026-05-06 07:43 54.38081 18.46558 460 ft 0 kts 293°
2026-05-06 07:45 54.38081 18.46559 460 ft 0 kts 293°
2026-05-06 07:46 54.38088 18.46529 460 ft 8 kts 293°
2026-05-06 07:46 54.38118 18.46407 461 ft 13 kts 293°
2026-05-06 07:47 54.38152 18.46269 459 ft 12 kts 292°
2026-05-06 07:47 54.38177 18.46142 462 ft 10 kts 262°
2026-05-06 07:47 54.38129 18.46078 460 ft 9 kts 210°
2026-05-06 07:47 54.38099 18.45986 462 ft 10 kts 271°
2026-05-06 07:48 54.38126 18.45852 459 ft 14 kts 292°
2026-05-06 07:48 54.38139 18.45672 457 ft 17 kts 231°
2026-05-06 07:48 54.38043 18.45589 457 ft 12 kts 189°
2026-05-06 07:48 54.37999 18.45647 458 ft 12 kts 114°
2026-05-06 07:49 54.37874 18.46157 458 ft 82 kts 111°
2026-05-06 07:49 54.37566 18.47403 467 ft 141 kts 112°
2026-05-06 07:49 54.37142 18.49066 904 ft 156 kts 108°
2026-05-06 07:49 54.36712 18.50753 1765 ft 151 kts 110°
2026-05-06 07:50 54.36303 18.52373 2480 ft 145 kts 109°
2026-05-06 07:50 54.35915 18.53972 3078 ft 148 kts 109°
2026-05-06 07:50 54.35411 18.55550 3547 ft 157 kts 128°
2026-05-06 07:50 54.34459 18.56675 3878 ft 181 kts 153°
2026-05-06 07:51 54.33101 18.57045 4117 ft 214 kts 174°
2026-05-06 07:51 54.31552 18.57136 4479 ft 233 kts 173°
2026-05-06 07:51 54.29865 18.57266 4887 ft 252 kts 173°
2026-05-06 07:51 54.28070 18.57411 5430 ft 261 kts 174°
2026-05-06 07:52 54.26267 18.57553 6291 ft 259 kts 175°
2026-05-06 07:52 54.24462 18.57692 7024 ft 261 kts 176°
2026-05-06 07:52 54.22641 18.57835 7754 ft 263 kts 176°
2026-05-06 07:52 54.20811 18.57978 8487 ft 265 kts 176°
2026-05-06 07:53 54.18962 18.58120 9189 ft 267 kts 177°
2026-05-06 07:53 54.17094 18.58266 9868 ft 269 kts 178°
2026-05-06 07:53 54.15187 18.58418 10242 ft 283 kts 177°
2026-05-06 07:53 54.13156 18.58584 10444 ft 300 kts 177°
2026-05-06 07:54 54.11028 18.58757 10770 ft 312 kts 177°
2026-05-06 07:54 54.08833 18.58931 11321 ft 317 kts 178°
2026-05-06 07:54 54.06620 18.59102 11970 ft 320 kts 178°
2026-05-06 07:54 54.04385 18.59274 12653 ft 323 kts 178°
2026-05-06 07:55 54.02128 18.59446 13376 ft 326 kts 178°
2026-05-06 07:55 53.99855 18.59618 14054 ft 329 kts 178°
2026-05-06 07:55 53.97550 18.59793 14693 ft 333 kts 178°
2026-05-06 07:55 53.95222 18.59969 15331 ft 337 kts 179°
2026-05-06 07:56 53.92862 18.60148 15986 ft 341 kts 179°
2026-05-06 07:56 53.90475 18.60328 16623 ft 345 kts 179°
2026-05-06 07:56 53.88064 18.60510 17245 ft 349 kts 179°
2026-05-06 07:56 53.85622 18.60693 17849 ft 353 kts 179°
2026-05-06 07:57 53.83154 18.60879 18408 ft 357 kts 179°
2026-05-06 07:57 53.80663 18.61066 18933 ft 360 kts 179°
2026-05-06 07:57 53.78154 18.61254 19456 ft 362 kts 179°
2026-05-06 07:57 53.75628 18.61562 19951 ft 367 kts 171°
2026-05-06 07:58 53.73195 18.62969 20493 ft 372 kts 160°
2026-05-06 07:58 53.70795 18.64660 20999 ft 376 kts 160°
2026-05-06 07:58 53.68372 18.66386 21505 ft 379 kts 160°
2026-05-06 07:58 53.65935 18.68141 22025 ft 382 kts 159°
2026-05-06 07:59 53.63481 18.69916 22535 ft 386 kts 159°
2026-05-06 07:59 53.61005 18.71709 23041 ft 389 kts 159°
2026-05-06 07:59 53.58512 18.73514 23504 ft 392 kts 159°
2026-05-06 07:59 53.55993 18.75335 23871 ft 396 kts 159°
2026-05-06 08:00 53.53461 18.77165 24067 ft 396 kts 159°
2026-05-06 08:00 53.50878 18.78722 24267 ft 393 kts 166°
2026-05-06 08:00 53.48296 18.80031 24461 ft 394 kts 165°
2026-05-06 08:00 53.45643 18.81414 24669 ft 394 kts 165°
2026-05-06 08:01 53.43058 18.82780 24777 ft 397 kts 165°
2026-05-06 08:01 53.40416 18.84185 24789 ft 398 kts 165°
2026-05-06 08:01 53.37779 18.85590 24779 ft 398 kts 165°
2026-05-06 08:01 53.35140 18.86995 24775 ft 398 kts 165°
2026-05-06 08:02 53.32505 18.88396 24779 ft 398 kts 165°
2026-05-06 08:02 53.29867 18.89798 24773 ft 398 kts 165°
2026-05-06 08:02 53.27230 18.91197 24767 ft 398 kts 165°
2026-05-06 08:02 53.24589 18.92596 24770 ft 397 kts 165°
2026-05-06 08:03 53.21955 18.93990 24762 ft 397 kts 165°
2026-05-06 08:03 53.19321 18.95379 24762 ft 397 kts 165°
2026-05-06 08:03 53.16688 18.96748 24762 ft 397 kts 165°
2026-05-06 08:03 53.14053 18.98118 24756 ft 395 kts 165°
2026-05-06 08:04 53.11490 18.99461 24728 ft 379 kts 163°
2026-05-06 08:04 53.09176 19.01497 24477 ft 378 kts 145°
2026-05-06 08:04 53.07342 19.04639 24098 ft 381 kts 133°
2026-05-06 08:04 53.05680 19.08039 23680 ft 378 kts 133°
2026-05-06 08:05 53.04026 19.11425 23254 ft 377 kts 133°
2026-05-06 08:05 53.02385 19.14808 22774 ft 375 kts 133°
2026-05-06 08:05 53.00756 19.18173 22344 ft 372 kts 133°
2026-05-06 08:05 52.99144 19.21506 21944 ft 369 kts 133°
2026-05-06 08:06 52.97544 19.24811 21558 ft 366 kts 133°
2026-05-06 08:06 52.95951 19.28097 21170 ft 364 kts 133°
2026-05-06 08:06 52.94370 19.31354 20779 ft 362 kts 133°
2026-05-06 08:06 52.92796 19.34593 20392 ft 359 kts 133°
2026-05-06 08:07 52.91237 19.37797 20016 ft 356 kts 133°
2026-05-06 08:07 52.89685 19.40983 19645 ft 354 kts 133°
2026-05-06 08:07 52.88141 19.44148 19275 ft 352 kts 134°
2026-05-06 08:07 52.86606 19.47294 18903 ft 350 kts 133°
2026-05-06 08:08 52.85076 19.50422 18541 ft 349 kts 134°
2026-05-06 08:08 52.83550 19.53539 18170 ft 348 kts 134°
2026-05-06 08:08 52.82033 19.56633 17764 ft 346 kts 133°
2026-05-06 08:08 52.80522 19.59714 17371 ft 343 kts 134°
2026-05-06 08:09 52.79022 19.62764 16992 ft 341 kts 133°
2026-05-06 08:09 52.77532 19.65793 16601 ft 339 kts 134°
2026-05-06 08:09 52.76049 19.68804 16261 ft 336 kts 133°
2026-05-06 08:09 52.74581 19.71783 15909 ft 333 kts 133°
2026-05-06 08:10 52.73120 19.74740 15554 ft 331 kts 133°
2026-05-06 08:10 52.71668 19.77678 15211 ft 329 kts 134°
2026-05-06 08:10 52.70225 19.80598 14853 ft 327 kts 133°
2026-05-06 08:10 52.68774 19.83481 14455 ft 327 kts 134°
2026-05-06 08:11 52.67319 19.86350 14096 ft 325 kts 134°
2026-05-06 08:11 52.65873 19.89202 13810 ft 323 kts 134°
2026-05-06 08:11 52.64418 19.92069 13251 ft 331 kts 134°
2026-05-06 08:11 52.62928 19.95004 12685 ft 336 kts 134°
2026-05-06 08:12 52.61427 19.97957 12281 ft 335 kts 134°
2026-05-06 08:12 52.59938 20.00884 11942 ft 333 kts 134°
2026-05-06 08:12 52.58455 20.03796 11547 ft 331 kts 134°
2026-05-06 08:12 52.56980 20.06689 11190 ft 329 kts 134°
2026-05-06 08:13 52.55517 20.09553 10824 ft 326 kts 134°
2026-05-06 08:13 52.54065 20.12395 10543 ft 322 kts 134°
2026-05-06 08:13 52.52648 20.15163 10396 ft 312 kts 134°
2026-05-06 08:13 52.51270 20.17854 10279 ft 303 kts 134°
2026-05-06 08:14 52.49936 20.20455 10165 ft 293 kts 135°
2026-05-06 08:14 52.48640 20.22978 9987 ft 287 kts 135°
2026-05-06 08:14 52.47354 20.25482 9670 ft 286 kts 135°
2026-05-06 08:14 52.46508 20.27126 9476 ft 285 kts 135°
2026-05-06 08:15 52.45232 20.29605 9179 ft 283 kts 135°
2026-05-06 08:15 52.43555 20.32860 8789 ft 281 kts 135°
2026-05-06 08:15 52.42299 20.35295 8510 ft 279 kts 135°
2026-05-06 08:15 52.41053 20.37709 8238 ft 276 kts 135°
2026-05-06 08:16 52.39816 20.40101 7951 ft 274 kts 135°
2026-05-06 08:16 52.38588 20.42475 7667 ft 272 kts 135°
2026-05-06 08:16 52.37761 20.44073 7477 ft 271 kts 135°
2026-05-06 08:16 52.36555 20.46399 7043 ft 268 kts 135°
2026-05-06 08:17 52.35353 20.48716 6537 ft 265 kts 135°
2026-05-06 08:17 52.34166 20.51004 6032 ft 263 kts 135°
2026-05-06 08:17 52.32988 20.53272 5549 ft 261 kts 134°
2026-05-06 08:17 52.31833 20.55492 5077 ft 259 kts 135°
2026-05-06 08:18 52.30656 20.57752 4584 ft 257 kts 134°
2026-05-06 08:18 52.29499 20.59972 4043 ft 257 kts 134°
2026-05-06 08:18 52.28340 20.62198 3882 ft 255 kts 134°
2026-05-06 08:18 52.27224 20.64338 3772 ft 246 kts 135°
2026-05-06 08:19 52.26142 20.66417 3771 ft 235 kts 135°
2026-05-06 08:19 52.25112 20.68391 3783 ft 222 kts 134°
2026-05-06 08:19 52.24132 20.70330 3546 ft 224 kts 130°
2026-05-06 08:19 52.23332 20.72553 3250 ft 227 kts 121°
2026-05-06 08:20 52.22682 20.74859 2998 ft 221 kts 119°
2026-05-06 08:20 52.22057 20.77133 2671 ft 217 kts 119°
2026-05-06 08:20 52.21436 20.79302 2377 ft 205 kts 119°
2026-05-06 08:20 52.20871 20.81369 2114 ft 194 kts 117°
2026-05-06 08:21 52.20345 20.83259 1884 ft 175 kts 118°
2026-05-06 08:21 52.19862 20.85004 1652 ft 162 kts 117°
2026-05-06 08:21 52.19417 20.86614 1439 ft 152 kts 120°
2026-05-06 08:21 52.18975 20.88151 1181 ft 150 kts 118°
2026-05-06 08:22 52.18529 20.89727 1023 ft 154 kts 118°
2026-05-06 08:22 52.18095 20.91309 827 ft 154 kts 116°
2026-05-06 08:22 52.17646 20.92897 630 ft 152 kts 118°
2026-05-06 08:22 52.17214 20.94446 433 ft 149 kts 116°
2026-05-06 08:23 52.16797 20.95908 339 ft 130 kts 112°
2026-05-06 08:23 52.16492 20.97007 338 ft 77 kts 115°
2026-05-06 08:23 52.16386 20.97508 339 ft 43 kts 95°
2026-05-06 08:23 52.16392 20.97738 341 ft 5 kts 82°
2026-05-06 08:24 52.16400 20.97779 353 ft 0 kts 64°
2026-05-06 08:25 52.16408 20.97793 347 ft 6 kts 41°
2026-05-06 08:25 52.16473 20.97730 338 ft 20 kts 295°
2026-05-06 08:25 52.16548 20.97461 338 ft 30 kts 294°
2026-05-06 08:25 52.16633 20.97295 337 ft 16 kts 331°
2026-05-06 08:26 52.16703 20.97237 338 ft 7 kts 334°
2026-05-06 08:26 52.16725 20.97248 337 ft 5 kts 49°
2026-05-06 08:26 52.16751 20.97332 339 ft 6 kts 62°
2026-05-06 08:26 52.16758 20.97353 339 ft 1 kts 62°
2026-05-06 08:27 52.16759 20.97356 339 ft 0 kts 62°